FW3211 Weather Reports


Display with metric or nautical units.
time (UTC)temp
F
wind
direction
speed
MPH
gust
MPH
rain 1hr
in
rain 24hr
in
rain mn
in
humidity
%
barometer
mb
20260508213232 60 354 2.0 3.0 0.00 0.00 0.00 70 1017.5
20260508212732 60 350 2.0 3.0 0.00 0.00 0.00 70 1017.5
20260508212315 60 332 2.0 3.0 0.00 0.00 0.00 70 1017.4
20260508212256 60 325 2.0 3.0 0.00 0.00 0.00 70 1017.4
20260508211515 60 332 2.0 3.0 0.00 0.00 0.00 70 1017.4
20260508210728 60 332 2.0 4.0 0.00 0.00 0.00 69 1017.4
20260508210226 60 293 2.0 4.0 0.00 0.00 0.00 69 1017.4
20260508205721 60 316 2.0 4.0 0.00 0.00 0.00 70 1017.4
20260508205500 60 347 2.0 4.0 0.00 0.00 0.00 69 1017.3
20260508204720 60 349 2.0 3.0 0.00 0.00 0.00 69 1017.3
20260508204514 61 337 2.0 3.0 0.00 0.00 0.00 69 1017.3
20260508203727 61 332 2.0 3.0 0.00 0.00 0.00 69 1017.3
20260508203220 61 349 2.0 3.0 0.00 0.00 0.00 69 1017.3
20260508202722 61 347 2.0 4.0 0.00 0.00 0.00 70 1017.3
20260508202219 61 347 2.0 4.0 0.00 0.00 0.00 69 1017.3
20260508201721 61 320 2.0 3.0 0.00 0.00 0.00 69 1017.3
20260508201219 61 359 2.0 3.0 0.00 0.00 0.00 69 1017.2
20260508200719 61 326 2.0 3.0 0.00 0.00 0.00 69 1017.1
20260508200219 61 326 2.0 3.0 0.00 0.00 0.00 70 1017.1
20260508195719 61 350 2.0 3.0 0.00 0.00 0.00 70 1017.0
20260508195220 61 307 2.0 3.0 0.00 0.00 0.00 70 1017.0
20260508194719 61 343 2.0 3.0 0.00 0.00 0.00 70 1017.0
20260508194220 61 354 2.0 3.0 0.00 0.00 0.00 71 1017.1
20260508193719 61 320 2.0 4.0 0.00 0.00 0.00 71 1017.0
20260508193215 61 305 2.0 4.0 0.00 0.00 0.00 71 1017.0
20260508193009 61 342 2.0 3.0 0.00 0.00 0.00 72 1016.9
20260508192216 61 342 2.0 3.0 0.00 0.00 0.00 72 1016.7
20260508191715 61 320 2.0 3.0 0.00 0.00 0.00 72 1016.7
20260508191215 61 315 2.0 3.0 0.00 0.00 0.00 72 1016.6
20260508190715 61 337 2.0 4.0 0.00 0.00 0.00 72 1016.5
20260508190218 61 327 2.0 4.0 0.00 0.00 0.00 72 1016.5
20260508185715 61 338 2.0 3.0 0.00 0.00 0.00 72 1016.4
20260508185211 61 342 2.0 3.0 0.00 0.00 0.00 72 1016.3
20260508184713 61 342 2.0 3.0 0.00 0.00 0.00 72 1016.2
20260508184210 62 337 2.0 3.0 0.00 0.00 0.00 72 1016.2
20260508183713 62 337 2.0 3.0 0.00 0.00 0.00 71 1016.1
20260508183504 62 337 2.0 4.0 0.00 0.00 0.00 72 1016.1
20260508182956 62 336 2.0 4.0 0.00 0.00 0.00 72 1016.0
20260508182455 62 336 2.0 3.0 0.00 0.00 0.00 72 1015.9
20260508181713 62 335 2.0 3.0 0.00 0.00 0.00 72 1015.9
20260508181207 62 335 2.0 3.0 0.00 0.00 0.00 72 1015.8
20260508180706 62 336 2.0 3.0 0.00 0.00 0.00 72 1015.7
20260508180207 62 332 2.0 3.0 0.00 0.00 0.00 72 1015.7
20260508175707 62 329 2.0 3.0 0.00 0.00 0.00 71 1015.6
20260508175449 63 329 2.0 3.0 0.00 0.00 0.00 71 1015.6
20260508174707 63 328 2.0 3.0 0.00 0.00 0.00 71 1015.5
20260508174445 63 324 2.0 3.0 0.00 0.00 0.00 71 1015.5
20260508173705 63 321 2.0 3.0 0.00 0.00 0.00 71 1015.4
20260508173203 63 314 2.0 3.0 0.00 0.00 0.00 71 1015.3
20260508172704 63 314 2.0 3.0 0.00 0.00 0.00 70 1015.3
20260508172203 63 313 2.0 3.0 0.00 0.00 0.00 69 1015.3
20260508171953 63 311 2.0 3.0 0.00 0.00 0.00 70 1015.4
20260508171203 63 310 2.0 3.0 0.00 0.00 0.00 70 1015.4
20260508170705 63 330 2.0 3.0 0.00 0.00 0.00 70 1015.3
20260508170204 63 330 2.0 3.0 0.00 0.00 0.00 70 1015.2
20260508165705 63 330 2.0 3.0 0.00 0.00 0.00 69 1015.2
20260508165206 63 327 2.0 3.0 0.00 0.00 0.00 68 1015.1
20260508164703 63 326 2.0 3.0 0.00 0.00 0.00 68 1015.1
20260508164203 64 316 2.0 3.0 0.00 0.00 0.00 68 1015.1
20260508163704 64 332 2.0 3.0 0.00 0.00 0.00 67 1015.0
20260508163458 64 332 2.0 3.0 0.00 0.00 0.00 68 1015.0
20260508162702 64 332 2.0 3.0 0.00 0.00 0.00 68 1015.1
20260508162225 63 330 2.0 3.0 0.00 0.00 0.00 67 1015.2
20260508162216 64 332 2.0 3.0 0.00 0.00 0.00 67 1015.2
20260508161438 63 330 2.0 3.0 0.00 0.00 0.00 68 1015.1
20260508160650 64 330 2.0 4.0 0.00 0.00 0.00 68 1015.0
20260508160149 64 335 2.0 4.0 0.00 0.00 0.00 68 1015.0
20260508155649 64 359 2.0 3.0 0.00 0.00 0.00 68 1015.0
20260508155149 64 354 2.0 3.0 0.00 0.00 0.00 67 1015.0
20260508154648 64 354 2.0 3.0 0.00 0.00 0.00 68 1015.0
20260508154145 64 343 2.0 3.0 0.00 0.00 0.00 68 1015.0
20260508153641 64 341 2.0 3.0 0.00 0.00 0.00 68 1015.1
20260508153140 64 341 2.0 3.0 0.00 0.00 0.00 67 1015.0
20260508152641 64 348 2.0 4.0 0.00 0.00 0.00 67 1015.1
20260508152139 64 348 2.0 4.0 0.00 0.00 0.00 66 1015.1
20260508151922 64 339 2.0 3.0 0.00 0.00 0.00 67 1015.1
20260508151132 65 325 2.0 4.0 0.00 0.00 0.00 66 1015.2
20260508150633 65 332 2.0 4.0 0.00 0.00 0.00 66 1015.0
20260508150133 65 335 2.0 3.0 0.00 0.00 0.00 65 1015.0
20260508145632 66 335 2.0 3.0 0.00 0.00 0.00 64 1015.2
20260508145135 67 359 2.0 3.0 0.00 0.00 0.00 63 1015.2
20260508144916 68 359 2.0 3.0 0.00 0.00 0.00 62 1015.2
20260508144129 68 4 2.0 4.0 0.00 0.00 0.00 61 1015.3
20260508143624 69 25 2.0 4.0 0.00 0.00 0.00 57 1015.2
20260508143427 70 335 2.0 4.0 0.00 0.00 0.00 59 1015.2
20260508142909 70 308 1.0 4.0 0.00 0.00 0.00 59 1015.2
20260508142116 70 321 1.0 3.0 0.00 0.00 0.00 57 1015.3
20260508141627 70 13 2.0 4.0 0.00 0.00 0.00 54 1015.3
20260508141112 70 23 1.0 4.0 0.00 0.00 0.00 56 1015.4
20260508140612 70 81 1.0 3.0 0.00 0.00 0.00 56 1015.4
20260508140132 70 79 2.0 4.0 0.00 0.00 0.00 58 1015.4
20260508135612 70 105 2.0 5.0 0.00 0.00 0.00 56 1015.4
20260508135111 70 33 1.0 5.0 0.00 0.00 0.00 58 1015.4
20260508134857 70 98 1.0 4.0 0.00 0.00 0.00 58 1015.4
20260508134429 70 189 1.0 3.0 0.00 0.00 0.00 59 1015.6
20260508134132 70 148 1.0 4.0 0.00 0.00 0.00 57 1015.5
20260508133121 70 228 1.0 3.0 0.00 0.00 0.00 58 1015.6
20260508132610 69 97 1.0 4.0 0.00 0.00 0.00 55 1015.6
20260508132109 69 41 1.0 4.0 0.00 0.00 0.00 57 1015.6
20260508131610 69 131 1.0 3.0 0.00 0.00 0.00 57 1015.6
20260508131110 69 131 1.0 4.0 0.00 0.00 0.00 57 1015.6
20260508130611 69 23 1.0 4.0 0.00 0.00 0.00 57 1015.6
20260508130122 69 83 1.0 4.0 0.00 0.00 0.00 54 1015.6
20260508125608 68 76 1.0 4.0 0.00 0.00 0.00 50 1015.6
20260508125107 68 162 1.0 4.0 0.00 0.00 0.00 50 1015.6
20260508124606 69 24 1.0 2.0 0.00 0.00 0.00 55 1015.6
20260508124107 68 79 1.0 4.0 0.00 0.00 0.00 51 1015.6
20260508123605 68 79 1.0 5.0 0.00 0.00 0.00 53 1015.6
20260508123105 69 300 2.0 5.0 0.00 0.00 0.00 54 1015.7
20260508122607 69 85 2.0 4.0 0.00 0.00 0.00 48 1015.6
20260508122348 69 150 1.0 4.0 0.00 0.00 0.00 46 1015.6
20260508121605 69 94 2.0 7.0 0.00 0.00 0.00 48 1015.7
20260508121105 69 101 3.0 7.0 0.00 0.00 0.00 48 1015.7
20260508120606 69 109 3.0 8.0 0.00 0.00 0.00 49 1015.7
20260508120343 69 122 3.0 8.0 0.00 0.00 0.00 49 1015.6
20260508115848 69 177 3.0 8.0 0.00 0.00 0.00 50 1015.6
20260508115109 69 155 3.0 8.0 0.00 0.00 0.00 50 1015.6
20260508114606 69 170 2.0 8.0 0.00 0.00 0.00 49 1015.6
20260508114107 69 137 2.0 8.0 0.00 0.00 0.00 50 1015.6
20260508113607 69 173 2.0 6.0 0.00 0.00 0.00 49 1015.6
20260508113347 69 199 3.0 7.0 0.00 0.00 0.00 48 1015.6
20260508112607 69 168 3.0 8.0 0.00 0.00 0.00 47 1015.6
20260508112106 69 128 3.0 8.0 0.00 0.00 0.00 51 1015.6
20260508111611 68 140 2.0 6.0 0.00 0.00 0.00 51 1015.7
20260508111108 68 140 2.0 7.0 0.00 0.00 0.00 52 1015.7
20260508110845 68 91 2.0 7.0 0.00 0.00 0.00 50 1015.7
20260508110112 68 179 2.0 9.0 0.00 0.00 0.00 51 1015.7
20260508105851 68 118 3.0 9.0 0.00 0.00 0.00 52 1015.7
20260508105105 68 125 4.0 9.0 0.00 0.00 0.00 52 1015.6
20260508104603 68 90 3.0 9.0 0.00 0.00 0.00 50 1015.7
20260508104103 68 106 3.0 8.0 0.00 0.00 0.00 54 1015.8
20260508103608 68 115 3.0 8.0 0.00 0.00 0.00 54 1015.7
20260508103104 68 57 3.0 8.0 0.00 0.00 0.00 53 1015.8
20260508102604 68 191 2.0 6.0 0.00 0.00 0.00 55 1015.7
20260508102351 69 156 2.0 5.0 0.00 0.00 0.00 54 1015.7
20260508101604 69 139 1.0 4.0 0.00 0.00 0.00 54 1015.7
20260508101105 69 110 2.0 4.0 0.00 0.00 0.00 55 1015.7
20260508100604 69 153 2.0 4.0 0.00 0.00 0.00 56 1015.7
20260508100104 68 126 1.0 4.0 0.00 0.00 0.00 54 1015.7
20260508095605 68 127 1.0 4.0 0.00 0.00 0.00 55 1015.7
20260508095105 69 143 1.0 3.0 0.00 0.00 0.00 54 1015.6
20260508094850 69 143 1.0 3.0 0.00 0.00 0.00 54 1015.6
20260508094103 68 142 1.0 2.0 0.00 0.00 0.00 52 1015.6
20260508093843 68 142 1.0 3.0 0.00 0.00 0.00 53 1015.6
20260508093105 68 141 1.0 4.0 0.00 0.00 0.00 53 1015.6
20260508092607 68 141 1.0 4.0 0.00 0.00 0.00 53 1015.6
20260508092105 68 142 1.0 4.0 0.00 0.00 0.00 54 1015.6
20260508091604 68 107 1.0 4.0 0.00 0.00 0.00 56 1015.6
20260508091104 68 151 1.0 3.0 0.00 0.00 0.00 57 1015.5
20260508090854 67 151 1.0 3.0 0.00 0.00 0.00 56 1015.5
20260508090107 67 151 1.0 3.0 0.00 0.00 0.00 57 1015.4
20260508085608 67 152 2.0 4.0 0.00 0.00 0.00 58 1015.4
20260508085106 67 152 2.0 4.0 0.00 0.00 0.00 58 1015.4
20260508084849 67 139 1.0 3.0 0.00 0.00 0.00 59 1015.4
20260508084103 68 139 1.0 4.0 0.00 0.00 0.00 56 1015.4
20260508083601 68 91 1.0 4.0 0.00 0.00 0.00 60 1015.3
20260508083059 68 131 1.0 4.0 0.00 0.00 0.00 56 1015.3
20260508082600 68 133 1.0 4.0 0.00 0.00 0.00 56 1015.2
20260508082059 68 78 1.0 5.0 0.00 0.00 0.00 54 1015.2
20260508081900 68 108 1.0 3.0 0.00 0.00 0.00 55 1015.0
20260508081856 68 144 1.0 5.0 0.00 0.00 0.00 58 1015.2
20260508080639 68 102 1.0 2.0 0.00 0.00 0.00 55 1015.0
20260508080628 68 103 1.0 3.0 0.00 0.00 0.00 58 1015.0
20260508075555 67 102 1.0 4.0 0.00 0.00 0.00 58 1014.9
20260508075057 67 101 1.0 4.0 0.00 0.00 0.00 58 1014.9
20260508074556 67 118 1.0 3.0 0.00 0.00 0.00 60 1014.9
20260508074051 67 118 1.0 3.0 0.00 0.00 0.00 58 1014.8
20260508073552 67 136 1.0 2.0 0.00 0.00 0.00 58 1014.8
20260508073428 66 136 1.0 2.0 0.00 0.00 0.00 59 1014.8
20260508073126 66 136 1.0 2.0 0.00 0.00 0.00 60 1014.8
20260508072051 66 136 1.0 3.0 0.00 0.02 0.00 60 1014.8
20260508071552 66 136 1.0 3.0 0.00 0.03 0.00 62 1014.8
20260508071053 66 73 1.0 3.0 0.00 0.03 0.00 61 1014.8
20260508070551 66 69 1.0 3.0 0.00 0.03 0.00 59 1014.8
20260508070051 66 123 1.0 3.0 0.00 0.03 0.00 59 1014.8
20260508065549 66 125 1.0 2.0 0.00 0.03 0.00 59 1014.8
20260508065050 65 99 0.0 2.0 0.00 0.03 0.00 59 1014.8
20260508064825 65 99 1.0 3.0 0.00 0.03 0.00 59 1014.7
20260508064043 65 99 1.0 3.0 0.00 0.03 0.00 60 1014.7
20260508063546 64 100 1.0 3.0 0.00 0.03 0.00 60 1014.7
20260508063042 64 100 1.0 3.0 0.00 0.03 0.00 61 1014.7
20260508062920 64 113 1.0 4.0 0.00 0.03 0.00 60 1014.7
20260508062916 64 99 1.0 4.0 0.00 0.03 0.00 60 1014.7
20260508061546 64 359 1.0 3.0 0.00 0.03 0.00 61 1014.6
20260508061040 64 83 1.0 3.0 0.00 0.03 0.00 63 1014.6
20260508060541 64 231 1.0 5.0 0.00 0.03 0.00 61 1014.5
20260508060039 64 23 1.0 5.0 0.00 0.03 0.00 60 1014.5
20260508055536 64 115 1.0 3.0 0.00 0.03 0.00 58 1014.5
20260508055033 63 120 1.0 3.0 0.00 0.03 0.00 57 1014.5
20260508054535 62 14 1.0 3.0 0.00 0.03 0.00 59 1014.5
20260508054034 61 118 1.0 6.0 0.00 0.03 0.00 62 1014.5
20260508053535 61 118 2.0 6.0 0.00 0.03 0.00 59 1014.5
20260508053034 61 336 1.0 4.0 0.00 0.03 0.00 63 1014.4
20260508052533 61 298 1.0 4.0 0.00 0.03 0.00 64 1014.4
20260508052032 60 359 1.0 4.0 0.00 0.03 0.00 61 1014.3
20260508051530 60 4 1.0 4.0 0.00 0.03 0.00 63 1014.3
20260508051318 60 25 2.0 5.0 0.00 0.03 0.00 63 1014.3
20260508050529 60 309 2.0 5.0 0.00 0.03 0.00 63 1014.3
20260508050030 60 314 2.0 5.0 0.00 0.03 0.00 63 1014.1
20260508045534 60 347 2.0 8.0 0.00 0.05 0.00 62 1014.1
20260508045327 60 18 2.0 8.0 0.00 0.05 0.00 62 1014.0
20260508044620 59 272 2.0 7.0 0.00 0.05 0.00 63 1013.9
20260508044600 59 100 2.0 7.0 0.00 0.05 0.00 62 1013.9
20260508043525 59 318 2.0 5.0 0.00 0.05 0.00 64 1013.9
20260508043026 59 33 2.0 4.0 0.00 0.05 0.00 65 1013.8
20260508042525 58 288 2.0 4.0 0.00 0.05 0.00 65 1013.8
20260508042031 58 354 2.0 4.0 0.00 0.05 0.00 66 1013.7
20260508041526 58 337 2.0 5.0 0.00 0.05 0.00 66 1013.7
20260508041332 58 354 2.0 5.0 0.00 0.05 0.00 65 1013.7
20260508040525 58 14 2.0 4.0 0.00 0.05 0.00 66 1013.6
20260508040024 58 301 2.0 4.0 0.00 0.05 0.00 66 1013.7
20260508035522 58 342 2.0 4.0 0.00 0.05 0.00 66 1013.6
20260508035108 58 332 2.0 4.0 0.00 0.05 0.00 67 1013.6
20260508035047 58 315 1.0 3.0 0.00 0.05 0.00 67 1013.6
20260508034011 58 30 2.0 4.0 0.00 0.05 0.00 67 1013.6
20260508033512 58 339 2.0 4.0 0.00 0.05 0.00 67 1013.6
20260508033014 58 349 2.0 4.0 0.00 0.05 0.00 67 1013.6
20260508032519 58 326 2.0 4.0 0.00 0.05 0.00 67 1013.6
20260508032012 58 288 2.0 4.0 0.00 0.05 0.00 66 1013.5
20260508031510 58 332 1.0 4.0 0.00 0.05 0.00 67 1013.5
20260508031010 58 8 1.0 3.0 0.00 0.05 0.00 67 1013.6
20260508030509 58 318 1.0 3.0 0.00 0.05 0.00 67 1013.6
20260508030007 58 318 2.0 3.0 0.00 0.05 0.00 66 1013.7
20260508025508 58 318 2.0 3.0 0.00 0.05 0.00 66 1013.7
20260508025006 58 291 2.0 3.0 0.00 0.05 0.00 66 1013.7
20260508024749 58 16 1.0 4.0 0.00 0.05 0.00 66 1013.7
20260508024008 58 308 2.0 4.0 0.00 0.05 0.00 65 1013.7
20260508023502 58 291 2.0 3.0 0.00 0.05 0.00 66 1013.7
20260508022954 58 340 2.0 4.0 0.00 0.05 0.00 66 1013.7
20260508022456 58 19 2.0 6.0 0.00 0.05 0.00 65 1013.8
20260508021950 58 284 2.0 6.0 0.00 0.05 0.00 66 1013.8
20260508021450 58 354 2.0 5.0 0.00 0.05 0.00 67 1013.9
20260508020947 58 295 2.0 5.0 0.00 0.05 0.00 66 1013.9
20260508020449 58 276 2.0 4.0 0.00 0.05 0.00 67 1014.0
20260508020229 58 18 2.0 4.0 0.00 0.05 0.00 66 1014.0
20260508015445 58 296 2.0 4.0 0.00 0.05 0.00 66 1014.0
20260508014942 58 326 2.0 4.0 0.00 0.05 0.00 67 1014.0
20260508014441 58 354 2.0 4.0 0.00 0.05 0.00 66 1014.0
20260508013939 58 286 2.0 3.0 0.00 0.05 0.00 66 1014.1
20260508013723 58 301 2.0 4.0 0.00 0.05 0.00 66 1014.1
20260508012936 58 289 2.0 4.0 0.00 0.05 0.00 65 1014.1
20260508012438 58 310 2.0 6.0 0.00 0.05 0.00 65 1014.1
20260508011935 58 248 2.0 6.0 0.00 0.05 0.00 65 1014.1
20260508011435 58 320 2.0 6.0 0.00 0.05 0.00 66 1014.3
20260508010936 57 298 2.0 4.0 0.00 0.05 0.00 66 1014.3
20260508010435 57 316 2.0 4.0 0.00 0.05 0.00 66 1014.3
20260508005943 57 354 2.0 4.0 0.00 0.05 0.00 67 1014.3
20260508005436 57 332 2.0 4.0 0.00 0.05 0.00 67 1014.3
20260508004936 57 335 2.0 4.0 0.00 0.05 0.00 66 1014.3
20260508004434 57 310 2.0 5.0 0.00 0.05 0.00 66 1014.4
20260508003933 57 45 2.0 5.0 0.00 0.05 0.00 66 1014.4
20260508003508 56 18 2.0 4.0 0.00 0.05 0.00 68 1014.5
20260508003453 56 4 2.0 4.0 0.00 0.05 0.00 67 1014.4
20260508002432 55 326 2.0 4.0 0.00 0.05 0.00 68 1014.5
20260508001934 55 325 1.0 3.0 0.00 0.05 0.00 69 1014.6
20260508001432 55 325 1.0 3.0 0.00 0.05 0.00 69 1014.6
20260508000934 55 325 2.0 4.0 0.00 0.05 0.00 68 1014.7
20260508000434 55 325 2.0 4.0 0.00 0.05 0.00 69 1014.7
20260507235932 55 320 2.0 3.0 0.00 0.05 0.00 68 1014.7
20260507235433 55 319 2.0 4.0 0.00 0.05 0.00 69 1014.9
20260507234936 55 319 2.0 4.0 0.00 0.05 0.00 69 1014.9
20260507234439 55 319 2.0 3.0 0.00 0.05 0.00 69 1014.9
20260507233935 55 307 2.0 3.0 0.00 0.05 0.00 70 1014.9
20260507233433 55 307 2.0 4.0 0.00 0.05 0.00 70 1015.0
20260507232934 55 340 2.0 4.0 0.00 0.05 0.00 70 1015.1
20260507232431 55 331 2.0 4.0 0.00 0.05 0.00 70 1015.2
20260507231933 55 326 2.0 3.0 0.00 0.05 0.00 71 1015.2
20260507231727 55 324 2.0 3.0 0.00 0.05 0.00 71 1015.2
20260507230932 54 345 2.0 3.0 0.00 0.05 0.00 72 1015.3
20260507230544 54 345 2.0 3.0 0.00 0.05 0.00 72 1015.4
20260507230535 54 344 2.0 3.0 0.00 0.05 0.00 72 1015.3
20260507230523 54 345 2.0 2.0 0.00 0.05 0.00 72 1015.4
20260507224933 54 344 2.0 2.0 0.00 0.05 0.00 72 1015.4
20260507224433 54 344 1.0 2.0 0.00 0.05 0.00 72 1015.4
20260507223935 54 344 1.0 2.0 0.00 0.05 0.00 72 1015.4
20260507223717 54 344 2.0 3.0 0.00 0.05 0.00 73 1015.4
20260507222937 54 344 2.0 3.0 0.00 0.05 0.00 74 1015.4
20260507222435 54 344 2.0 3.0 0.00 0.05 0.00 74 1015.4
20260507221937 54 344 1.0 3.0 0.00 0.05 0.00 75 1015.3
20260507221435 54 344 1.0 2.0 0.00 0.05 0.00 74 1015.4
20260507220933 54 344 1.0 2.0 0.00 0.05 0.00 73 1015.4
20260507220436 54 344 2.0 3.0 0.00 0.05 0.00 73 1015.4
20260507215932 54 344 2.0 3.0 0.00 0.05 0.05 74 1015.3
20260507215432 54 344 2.0 3.0 0.00 0.05 0.05 75 1015.3
20260507214932 54 344 1.0 2.0 0.00 0.05 0.05 75 1015.3
20260507214433 54 344 1.0 2.0 0.00 0.05 0.05 75 1015.3
20260507213934 54 344 2.0 2.0 0.00 0.05 0.05 75 1015.2